This is the latest recevied weather packets stored in our database for station/object lw9ero. If no packets are shown the sender has not sent any weather packets the latest 10 day(s).
| Time | Temp. | Humidity | Pressure | Rain* | Wind** | Luminosity | Snow |
|---|---|---|---|---|---|---|---|
| 1777747479 | 13.89° C | 43% | 1030.8 hPa | 0 mm | - | 1214 W/m² | - |
| 1777746873 | 14.44° C | 41% | 1030.9 hPa | 0 mm | - | 1214 W/m² | - |
| 1777746268 | 13.89° C | 43% | 1030.9 hPa | 0 mm | - | 1141 W/m² | - |
| 1777745662 | 13.89° C | 42% | 1030.9 hPa | 0 mm | - | 1141 W/m² | - |
| 1777745058 | 13.89° C | 41% | 1030.8 hPa | 0 mm | - | 1141 W/m² | - |
| 1777744452 | 13.89° C | 42% | 1030.8 hPa | 0 mm | - | 1032 W/m² | - |
| 1777743842 | 13.89° C | 41% | 1030.7 hPa | 0 mm | - | 1032 W/m² | - |
| 1777743236 | 13.89° C | 41% | 1030.8 hPa | 0 mm | - | 1032 W/m² | - |
| 1777742631 | 13.89° C | 41% | 1030.6 hPa | 0 mm | - | 922 W/m² | - |
| 1777742024 | 13.89° C | 41% | 1031.2 hPa | 0 mm | - | 922 W/m² | - |
| 1777741418 | 13.89° C | 42% | 1030.8 hPa | 0 mm | - | 922 W/m² | - |
| 1777740812 | 13.33° C | 44% | 1031.4 hPa | 0 mm | - | 812 W/m² | - |
| 1777740205 | 13.33° C | 41% | 1031.2 hPa | 0 mm | - | 812 W/m² | - |
| 1777739601 | 13.33° C | 43% | 1031.3 hPa | 0 mm | - | 812 W/m² | - |
| 1777738993 | 13.33° C | 45% | 1031.5 hPa | 0 mm | - | 702 W/m² | - |
| 1777738387 | 13.33° C | 41% | 1031.8 hPa | 0 mm | - | 702 W/m² | - |
| 1777737781 | 12.78° C | 38% | 1031.5 hPa | 0 mm | - | 702 W/m² | - |
| 1777737175 | 13.33° C | 40% | 1031.7 hPa | 0 mm | - | 629 W/m² | - |
| 1777736568 | 12.78° C | 39% | 1032 hPa | 0 mm | - | 629 W/m² | - |
| 1777735961 | 13.33° C | 41% | 1031.6 hPa | 0 mm | - | 629 W/m² | - |
| 1777735355 | 12.78° C | 40% | 1031.7 hPa | 0 mm | - | 483 W/m² | - |
| 1777734749 | 12.78° C | 41% | 1031.8 hPa | 0 mm | - | 483 W/m² | - |
| 1777734143 | 12.78° C | 42% | 1031.9 hPa | 0 mm | - | 483 W/m² | - |
| 1777733540 | 12.78° C | 44% | 1031.8 hPa | 0 mm | - | 374 W/m² | - |
| 1777732934 | 12.78° C | 45% | 1032 hPa | 0 mm | - | 374 W/m² | - |
* Rain latest hour (hover to see other rain measurements)
** Current wind speed in m/s (hover to see current wind gust speed)